Location: Unspecified
(0.0000°N, 0.0000°E)
Time: 19:26:51
(UTC+00:00)

Altair - Pass Details

Date: 26 November 2019
Orbit: 1502 x 1682 km, 47.2° (Epoch: 08 December)

Event Time Altitude Azimuth Distance (km) Brightness Sun altitude
Rises 11:37:38 0° 288° (WNW) 4,768 10.0 68.9°
Reaches altitude 10° 11:41:37 10° 274° (W) 3,816 9.7 69.0°
Maximum altitude 11:48:42 23° 227° (SW) 2,994 9.6 69.1°
Drops below altitude 10° 11:56:00 10° 179° (S) 3,914 10.1 69.0°
Sets 12:00:14 0° 165° (SSE) 4,920 10.4 68.8°
